Regional Weather Roundup
Issued by NWS Midland/Odessa, TX

Skip options and go directly to product.
Home | Oldest Version | Previous Version | Current Version | All | Text Only | Save Text | Print | Product List | Glossary On

Skip product version selection by date and time.   
535
ASUS44 KMAF 252110
RWRMAF
MIDLAND AREA WEATHER ROUNDUP
NATIONAL WEATHER SERVICE MIDLAND TX
400 PM CDT MON MAY 25 2015

...IN SOUTHWEST TEXAS AND SOUTHEAST NEW MEXICO...

CITY           SKY/WX    TMP DP  RH WIND       PRES   REMARKS
ALPINE         SUNNY     81  24  12 W20G25    30.04F
ANDREWS        FAIR      77  48  35 W6        29.91F
ARTESIA        PTSUNNY   81  32  17 E12       29.86F
BIG SPRING     SUNNY     76  54  45 S9        29.91F
CARLSBAD       SUNNY     87  33  14 W14G22    29.85F
DRYDEN           N/A     94  18   6 SW12G26   29.82F
FORT STOCKTON  SUNNY     84  28  13 W10       29.89F
GUAD PASS      SUNNY     78  30  17 SW22G37   30.01F
HOBBS          MOSUNNY   77  41  27 S7        29.92F
MARFA          SUNNY     77  28  16 W15G24    30.04F
MIDLAND AIRPK  SUNNY     78  52  40 CALM      29.90F
MIDLAND INTL   SUNNY     77  52  41 CALM      29.90F
ODESSA         SUNNY     80  43  26 SW5       29.90F
PECOS          SUNNY     85  33  15 CALM      29.86F
PRESIDIO       FAIR      88  21   8 W10G16    29.89F
SEMINOLE       SUNNY     78  49  35 S7        29.92F
SNYDER         SUNNY     71  53  53 W5        29.88F
WINK           SUNNY     85  42  22 SE10      29.85F
$$
...OTHER STATIONS IN TEXAS...

CITY           SKY/WX    TMP DP  RH WIND       PRES   REMARKS
ABILENE        CLOUDY    68  58  70 NW7       29.90R
AMARILLO       PTSUNNY   67  50  54 S12       29.90F
AUSTIN         TSTM      76  74  93 S17       29.76R FOG
BROWNSVILLE    PTSUNNY   88  77  69 SE22G31   29.82F HX 100
CORPUS CHRISTI PTSUNNY   85  76  74 SE29G39   29.80F
DALLAS FTW     TSTM      62  61  96 N7        29.85F
DEL RIO        SUNNY     90  67  46 SE7       29.77F
EL PASO        MOSUNNY   82  26  13 SW14G23   29.94F
HOUSTON INT    CLOUDY    86  72  62 S17G29    29.85F
LUBBOCK        MOSUNNY   73  53  50 SE6       29.90F
SAN ANGELO     SUNNY     75  61  61 E6        29.87F
SAN ANTONIO    CLOUDY    85  72  65 S21G32    29.77F
WACO           TSTM      64  63  96 W8        29.92R VSB 1/2
WICHITA FALLS  NOT AVBL
$$
...OTHER LOCATIONS IN NEW MEXICO...

CITY           SKY/WX    TMP DP  RH WIND       PRES   REMARKS
ALAMAGORDO     SUNNY     77  28  16 NW8G20    29.95F
ALBUQUERQUE    TSTM      59  46  62 W32G43    29.99R
CANNON AFB     NOT AVBL
CLOVIS         MOSUNNY   75  43  31 SW18G24     N/A
HOLLOMAN AFB   NOT AVBL
ROSWELL        MOSUNNY   82  35  18 SE7G17    29.87F
RUIDOSO        MOSUNNY   66  28  24 NW5       30.07F
SANTA FE       LGT RAIN  60  46  59 NE5       30.00S
TRUTH OR CONSE LGT RAIN  72  35  25 N14G25    29.94S
TUCUMCARI      MOSUNNY   80  41  24 SW21      29.81F
$$

USA.gov is the U.S. government's official web portal to all federal, state and local government web resources and services.